#timestamp,LO_Frequency,Hit,StdDev 
1531778415.6,286046999.9,N
1531778435.5,286047002.7,N
1531778455.3,286047000.0,N
1531778475.2,286047000.9,N
1531778495.9,286047000.5,N
1531778515.7,286047000.8,N
1531778535.6,286047000.8,N
1531778555.4,286046996.5,N
1531778575.2,286046999.4,N
1531778595.1,286046999.3,N
1531778596.0,286046999.3,N
1531778615.8,286046999.1,N
1531778635.7,286047001.1,N
1531778655.5,286047000.3,N
1531778675.3,286047000.8,N
1531778695.2,286046998.4,N
1531778715.0,286046999.0,N
1531778715.9,286046999.0,N
1531778735.8,286046998.9,N
1531778755.6,286047001.2,N
1531778775.4,286047000.6,N
1531778795.3,286047000.9,N
1531778815.1,286047000.5,N
1531778835.8,286047000.1,N
1531778855.7,286047000.3,N
1531778875.5,286046998.9,N
1531778895.4,286046998.9,N
1531778915.2,286047000.7,N
1531778935.0,286047000.4,N
1531778935.9,286047000.4,N
1531778955.8,286046999.8,N
1531778975.6,286047000.2,N
1531778995.4,286047000.1,N
1531779015.3,286047000.2,N
1531779035.1,286046999.9,N
1531779055.9,286046999.8,N
1531779075.7,286047000.2,N
1531779095.5,286046999.8,N
1531779115.4,286047002.5,Y
1531779135.2,286047002.2,P
1531779155.1,286047001.5,N
1531779156.0,286047001.5,N
1531779175.8,286047002.2,N
1531779195.6,286047002.7,Y
1531779215.5,286046998.5,P
1531779235.3,286046999.2,N
1531779255.1,286046998.7,N
1531779275.9,286046999.2,N
1531779295.7,286046999.1,N
1531779315.6,286046997.5,N
1531779335.4,286046996.5,Y
1531779355.2,286047001.0,P
1531779375.1,286047000.4,N
1531779376.0,286047000.4,N
1531779395.8,286047000.3,N
1531779415.7,286047002.5,Y
1531779435.5,286047000.2,P
1531779455.3,286047000.5,P
1531779475.2,286047000.3,N
1531779495.0,286047000.6,Y
1531779495.9,286047000.6,P
1531779515.7,286046999.1,P
1531779535.6,286046996.8,P
1531779555.4,286046994.9,Y
1531779575.3,286046997.6,P
1531779595.1,286046997.7,N
1531779615.8,286046998.9,N
1531779635.7,286046996.5,Y
1531779655.5,286047000.9,P
1531779675.4,286047001.0,N
1531779695.2,286046999.5,N
1531779715.0,286047000.4,N
1531779715.9,286047000.4,N
1531779735.8,286047001.1,N
1531779755.6,286046996.9,Y
1531779775.5,286046996.7,P
1531779795.3,286046997.6,N
1531779815.1,286046994.9,P
1531779835.9,286046995.0,N
1531779855.7,286046995.2,N
1531779875.5,286047000.7,N
1531779895.4,286046999.6,N
1531779915.2,286046997.2,N
1531779935.1,286046997.9,N
1531779936.0,286046997.9,N
1531779955.8,286046995.2,N
1531779975.6,286046994.9,N
1531779995.5,286046995.1,N
1531780015.3,286046995.6,N
1531780035.1,286046997.8,N
1531780055.9,286046995.7,N
1531780075.7,286046995.1,N
1531780095.6,286046995.5,N
1531780115.4,286046997.3,N
1531780135.2,286046995.2,N
1531780155.1,286046999.6,N
1531780156.0,286046999.6,N
1531780175.8,286046999.1,N
1531780195.6,286046998.9,N
1531780215.5,286046998.3,N
1531780235.3,286046999.1,N
1531780255.2,286046997.7,N
1531780275.9,286046997.3,N
1531780295.7,286046996.7,N
1531780315.6,286046997.0,N
1531780335.4,286046997.7,N
1531780355.3,286047000.0,N
1531780375.1,286046998.6,N
1531780376.0,286046998.6,N
1531780395.8,286046999.5,N
1531780415.7,286046999.4,N
1531780435.5,286046997.5,N
1531780455.3,286046999.2,N
1531780475.2,286046997.0,N
1531780495.0,286046994.9,Y
1531780495.9,286046994.9,P
1531780515.8,286046999.0,N
1531780535.6,286047000.2,N
1531780585.5,286047002.6,E
1531780595.4,286046998.1,N
1531780615.2,286046996.6,P
1531780635.1,286046998.7,N
1531780636.0,286046998.7,N
1531780655.8,286046997.6,N
1531780675.6,286046999.4,N
1531780695.5,286046998.7,N
1531780715.3,286046996.8,Y
1531780735.2,286046998.9,P
1531780755.9,286047000.5,N
1531780775.7,286047000.7,N
1531780795.6,286046998.6,N
1531780815.4,286046999.4,N
1531780835.2,286046998.1,N
1531780855.1,286046999.1,N
1531780856.0,286046999.1,N
1531780875.8,286046999.5,N
1531780895.7,286046998.4,N
1531780915.5,286047000.0,N
1531780935.3,286046999.4,N
1531780955.2,286046999.9,N
1531780975.0,286047003.9,Y
1531780975.9,286047003.9,P
1531780995.8,286046999.7,N
1531781015.6,286047001.0,N
1531781035.4,286046999.7,N
1531781055.3,286047000.5,N
1531781075.1,286047000.7,N
1531781095.8,286046999.9,N
1531781115.7,286047000.4,N
1531781135.5,286047000.0,N
1531781155.4,286046998.4,N
1531781175.2,286046999.4,N
1531781195.0,286046998.5,N
1531781195.9,286046998.5,N
1531781215.8,286047000.4,N
1531781235.6,286047002.0,N
1531781255.4,286047000.1,N
1531781275.3,286047000.2,N
1531781295.1,286046999.7,N
1531781315.9,286047002.2,N
1531781335.7,286047002.5,N
1531781355.5,286047000.3,N
1531781375.4,286047002.7,N
1531781395.2,286047002.2,N
1531781415.0,286047001.5,N
1531781415.9,286047001.5,N
1531781435.8,286047001.4,N
1531781455.6,286046998.5,N
1531781475.5,286046998.5,N
1531781495.3,286046998.7,N
1531781515.1,286046999.9,N
1531781535.9,286047000.8,N
1531781555.7,286046999.8,N
1531781575.5,286047000.1,N
1531781595.4,286046998.6,N
1531781615.2,286047000.3,N
1531781635.1,286047004.0,Y
1531781636.0,286047004.0,P
1531781655.8,286047004.3,N
1531781675.6,286047002.1,N
1531781695.5,286047000.8,N
1531781715.3,286046998.4,N
1531781735.1,286046999.7,N
1531781755.9,286047001.9,N
1531781775.7,286047003.5,N
1531781795.6,286047004.0,N
1531781815.4,286046999.9,N
1531781835.2,286047002.1,N
1531781855.1,286047001.9,N
1531781856.0,286047001.9,N
1531781875.8,286047003.6,N
1531781895.6,286047000.4,N
1531781915.5,286047000.4,N
1531781935.3,286047000.0,N
1531781955.2,286046998.2,N
1531781975.9,286047001.0,N
1531781995.7,286047000.4,N
